Regional Weather Roundup
Issued by NWS

Home | Current Version | Previous Version | Text Only | Print | Product List | Glossary Off
Versions: 1 2 3 4 5 6 7 8 9 10 11 12 13 14 15 16 17 18 19 20 21 22 23 24 25 26 27 28 29 30 31 32 33 34 35 36 37 38 39 40 41 42 43 44 45 46 47 48 49 50

000
ASUS43 KLSX 290110
RWRMO

WEATHER SUMMARY FOR MISSOURI
NATIONAL WEATHER SERVICE SPRINGFIELD MO
800 PM CDT FRI APR 28 2017

NOTE: "FAIR" INDICATES FEW OR NO CLOUDS BELOW 12,000 FEET WITH NO
       SIGNIFICANT WEATHER AND/OR OBSTRUCTIONS TO VISIBILITY.
       CURRENT SKY AND/OR WEATHER CONDITIONS ARE NOT AVAILABLE FOR
       CHILLICOTHE AND FARMINGTON.

MOZ001>031-035>038-043-044-053-054-290200-
...NORTHERN AND WESTERN MISSOURI...

CITY           SKY/WX    TMP DP  RH WIND       PRES   REMARKS
KANSAS CTY INT FOG       47  47 100 N13       29.84R VSB 1
KANSAS C DTWN  CLOUDY    53  50  89 N10       29.84R
LEE`S SUMMIT   CLOUDY    55  54  96 N12       29.83R
ST JOSEPH      CLOUDY    45  44  97 N13       29.88R
CHILLICOTHE      N/A     47  44  90 N10       29.86R
KIRKSVILLE     CLOUDY    46  31  55 N13       29.85R HAZE

$$
MOZ066>068-077>081-088>096-101>105-290200-
...SOUTHWEST MISSOURI...

CITY           SKY/WX    TMP DP  RH WIND       PRES   REMARKS
SPRINGFIELD    CLOUDY    64  62  93 CALM      29.77R
JOPLIN         CLOUDY    66  62  87 NE5       29.77R
BRANSON        CLOUDY    63  63 100 CALM      29.77S FOG

$$
MOZ032>034-039>042-045>050-055>058-069>072-290200-
...CENTRAL MISSOURI...

CITY           SKY/WX    TMP DP  RH WIND       PRES   REMARKS
COLUMBIA       CLOUDY    59  58  96 E3        29.81R
JEFFERSON CITY CLOUDY    61  58  90 E3        29.80R
ROLLA          CLOUDY    60  60 100 CALM      29.79S
SEDALIA        CLOUDY    60  60 100 SE6       29.81R
WHITEMAN AFB   CLOUDY    61  61 100 CALM      29.79R
OSAGE BEACH    FOG       61  61 100 NW3       29.80R VSB 1

$$
MOZ051-052-059>065-290200-
...EAST CENTRAL MISSOURI...

CITY           SKY/WX    TMP DP  RH WIND       PRES   REMARKS
ST LOUIS INTL  CLOUDY    60  56  86 SE6       29.84R
SPIRIT OF STL  CLOUDY    58  57  97 CALM      29.82R
ST CHARLES     CLOUDY    58  58 100 CALM      29.82R

$$
MOZ072>076-082>087-097>100-106>115-290200-
...SOUTH CENTRAL AND SOUTHEAST MISSOURI...

CITY           SKY/WX    TMP DP  RH WIND       PRES   REMARKS
CAPE GIRARDEAU LGT RAIN  69  67  93 CALM      29.78R FOG
FARMINGTON     LGT RAIN  64  64 100 CALM      29.82R FOG
POPLAR BLUFF   CLOUDY    68  67  96 N5        29.77R
WEST PLAINS    CLOUDY    65  63  93 CALM      29.80R FOG

$$




USA.gov is the U.S. government's official web portal to all federal, state and local government web resources and services.